Location: Elbart
(49.6135°N, 11.9134°E)
Time: 05:47:04
(UTC+00:00)

ATLAS CENTAUR R/B - Pass Details

Date: 09 April 2020
Orbit: 466 x 681 km, 64.7° (Epoch: 26 May)

Event Time Altitude Azimuth Distance (km) Brightness Sun altitude
Rises 20:15:57 0° 322° (NW) 2,691 6.3 -20.6°
Reaches altitude 10° 20:18:16 10° 328° (NNW) 1,761 5.0 -20.9°
Maximum altitude 20:22:04 47° 44° (NE) 669 1.7 -21.4°
Enters shadow 20:22:10 47° 49° (NE) 670 1.6 -21.4°
